Regional Weather Roundup
Issued by NWS

Home | Current Version | Previous Version | Text Only | Print | Product List | Glossary Off
Versions: 1 2 3 4 5 6 7 8 9 10 11 12 13 14 15 16 17 18 19 20 21 22 23 24 25 26 27 28 29 30 31 32 33 34 35 36 37 38 39 40 41 42 43 44 45 46 47 48 49 50

000
ASUS43 KMPX 260910
RWRMN
WEATHER ROUNDUP FOR MINNESOTA
NATIONAL WEATHER SERVICE TWIN CITIES/CHANHASSEN MN
400 AM CDT WED APR 26 2017


NOTE: "FAIR" INDICATES FEW OR NO CLOUDS BELOW 12,000 FEET WITH NO
SIGNIFICANT WEATHER AND/OR OBSTRUCTIONS TO VISIBILITY. N/A MEANS
CURRENT SKY AND/OR WEATHER CONDITIONS ARE NOT AVAILABLE.

MNZ060>063-068>070-261000-
   Twin Cities Metro

CITY           SKY/WX    TMP DP  RH WIND       PRES   REMARKS
TWIN CITIES    LGT RAIN  42  39  89 N12       29.48F
ST PAUL        LGT RAIN  43  42  97 N9G20     29.49F
CRYSTAL        LGT RAIN  39  35  86 N14       29.49F
BLAINE         RAIN      39  39 100 N13       29.50F
LAKEVILLE      LGT RAIN  43  43 100 N10       29.45F
EDEN PRAIRIE   LGT RAIN  42  39  89 N13G22    29.46F
SOUTH ST PAUL  DRIZZLE   43  42  99 N8G16     29.47S
LAKE ELMO      RAIN      41  41 100 N8G17     29.48F
$$
MNZ001>005-007-008-013>017-022>024-027-028-261000-
   Northwest Minnesota

CITY           SKY/WX    TMP DP  RH WIND       PRES   REMARKS
BEMIDJI        FLURRIES  26  24  91 NE14G20   29.74S WCI  15
HALLOCK        CLOUDY    30  25  80 NE14G22   29.89S WCI  20
ROSEAU         CLOUDY    28  25  86 NE20      29.86F WCI  15
WARROAD        CLOUDY    28  25  86 NE21G29   29.87F WCI  15
THIEF RVR FALL CLOUDY    28  23  81 NE22      29.81F WCI  14
CROOKSTON      CLOUDY    30  27  86 NE9       29.83S WCI  22
FOSSTON        MIX PCPN  27  25  93 NE14G22   29.76S WCI  15
DETROIT LAKES  MIX PCPN  32  30  93 NE8       29.70S WCI  25
MOORHEAD       LGT RAIN  30  28  93 N8        29.75S WCI  23
PARK RAPIDS    FRZ RAIN  31  25  78 NE14G21   29.68S WCI  21
MAHNOMEN       MIX PCPN  30  27  88 NE7       29.72F WCI  23
$$
MNZ006-009>011-018-025>026-261000-
   North Central Minnesota

CITY           SKY/WX    TMP DP  RH WIND       PRES   REMARKS
BAUDETTE       CLOUDY    26  19  74 NE17G23   29.84F WCI  13
FLAG ISLAND    CLOUDY    27  21  80 NE21      29.89F WCI  13
INTL FALLS     CLOUDY    24  19  81 NE14G23   29.81F WCI  12
WASKISH        CLOUDY    27  23  86 NE14G24   29.79F WCI  15
BIG FORK       LGT SNOW  27  21  80 N8G16     29.75S WCI  18
LONGVILLE      MIX PCPN  28  27  93 NE7G16    29.69S WCI  21
CRANE LAKE     MIX PCPN  23  21  93 NE8G16    29.81F WCI  14
ORR            LGT SNOW  25  19  80 NE5       29.74S WCI  19
COOK           LGT SNOW  25  21  86 NE8G18    29.74F WCI  16
WALKER         MIX PCPN  28  25  91 N8        29.71S WCI  19
$$
MNZ012-019>021-037-261000-
   Northeast Minnesota

CITY           SKY/WX    TMP DP  RH WIND       PRES   REMARKS
DULUTH         FRZ RAIN  32  30  92 E21G32    29.65R WCI  20
ELY            LGT SNOW  25  21  86 NE10G16   29.72F WCI  15
HIBBING        MIX PCPN  26  24  92 NE9G22    29.70F WCI  17
EVELETH        MIX PCPN  28  24  86 NE9G16    29.71F WCI  19
DULUTH HARBOR  MIX PCPN  34  34 100 NE30      29.68S WCI  20
TWO HARBORS    DRIZZLE   34  28  80 NE14G22   29.66F WCI  24
SILVER BAY     DRIZZLE   32  30  93 NE13      29.67F WCI  22
GRAND MARAIS     N/A     32  28  85 NE9G18    29.70F WCI  24
G MARAIS ARPRT LGT SNOW  25  19  80 N6        29.67F WCI  18
$$
MNZ029>031-032-039>041-046>048-054>057-064-261000-
   West Central Minnesota

CITY           SKY/WX    TMP DP  RH WIND       PRES   REMARKS
FERGUS FALLS   DRIZZLE   34  32  93 NE8       29.69S WCI  27
WHEATON        MIX PCPN  32  30  93 NW13      29.71S WCI  22
MORRIS         MIX PCPN  34  34 100 N15       29.63F WCI  24
ALEXANDRIA     FRZ RAIN  33  31  92 N18G24    29.62F WCI  22
ELBOW LAKE     LGT RAIN  32  32  99 N13       29.67S WCI  23
WADENA         LGT RAIN  30  28  93 NE8       29.66S WCI  23
GLENWOOD       MIX PCPN  32  30  93 N18G25    29.60F WCI  20
APPLETON       LGT RAIN  36  34  93 N17G24    29.63F
BENSON         DRIZZLE   37  32  81 NE16      29.63S
ORTONVILLE     FLURRIES  34  30  86 N18G25    29.66S WCI  23
MADISON        LGT RAIN  37  37 100 N15       29.63F
WILLMAR        LGT RAIN  37  37 100 N16       29.58S
$$
MNZ033>034-036-042>043-049>051-058-059-261000-
   Central Minnesota

CITY           SKY/WX    TMP DP  RH WIND       PRES   REMARKS
ST CLOUD       LGT RAIN  36  35  96 N13       29.56F
SAUK CENTRE    LGT RAIN  33  32  96 N13       29.60F WCI  23
PAYNESVILLE    LGT RAIN  34  34 100 N15G22    29.57F WCI  24
AITKIN         MIX PCPN  34  28  80 N12G18    29.63S WCI  25
PINE RIVER     MIX PCPN  30  28  93 N9        29.71S WCI  22
BRAINERD       FRZ RAIN  32  30  92 NE13      29.64S FOG     WCI  22
STAPLES        MIX PCPN  30  30 100 CALM      29.65S
LONG PRAIRIE   FLURRIES  32  32 100 NW14G21   29.61F WCI  22
LITTLE FALLS   MIX PCPN  32  32 100 N6        29.61F WCI  26
LITCHFIELD     LGT RAIN  37  37 100 N15G22    29.54F
BUFFALO        RAIN      40  37  90 N13G23    29.53S
MAPLE LAKE     RAIN      40  39  95 N14G20    29.54S
HUTCHINSON     RAIN      41  41  98 N13G18    29.51F
$$
MNZ037-044-045-052-053-261000-
   East Central Minnesota

CITY           SKY/WX    TMP DP  RH WIND       PRES   REMARKS
PRINCETON      RAIN      39  36  87 N16       29.57R
MORA           RAIN      32  30  93 NE12G21   29.59S WCI  23
CAMBRIDGE      RAIN      37  36  93 N14G22    29.53S
RUSH CITY      LGT RAIN  35  33  93 NE10G21   29.56S WCI  27
MOOSE LAKE     LGT RAIN  32  32 100 NE16G22   29.61R WCI  21
HINCKLEY       RAIN      34  32  93 NE17G24   29.58F WCI  23
CLOQUET        LGT SNOW  34  30  86 NE16G22   29.64S WCI  23
MCGREGOR       CLOUDY    32  32 100 N10       29.64S WCI  24
$$
MNZ071>073-080-081-089-090-097-098-261000-
   Southwest Minnesota

CITY           SKY/WX    TMP DP  RH WIND       PRES   REMARKS
MONTEVIDEO     CLOUDY    36  36 100 N18       29.60S
GRANITE FALLS  CLOUDY    38  35  91 NW18      29.60F
CANBY          DRIZZLE   35  34  98 NW16G24   29.63F WCI  25
MARSHALL       LGT RAIN  36  34  92 N22G29    29.58F FOG
REDWOOD FALLS  LGT RAIN  39  36  89 N12       29.54S
OLIVIA         RAIN      36  34  93 N15G24    29.54S
PIPESTONE      CLOUDY    36  30  80 N18G26    29.57F
WINDOM         DRIZZLE   39  37  93 NW24G31   29.51S
WORTHINGTON    CLOUDY    36  36 100 NW20G30   29.54F FOG
JACKSON        LGT RAIN  37  37 100 NW18G30   29.50R
TRACY          CLOUDY    37  37  97 N18G28    29.57S
SLAYTON        CLOUDY    34  34  99 NW22G29   29.55F WCI  23
$$
MNZ065>067-074>077-082>085-091>093-261000-
   South Central Minnesota

CITY           SKY/WX    TMP DP  RH WIND       PRES   REMARKS
MANKATO        LGT RAIN  45  44  97 N17       29.45F
NEW ULM        LGT RAIN  45  43  93 N7        29.48S
ST JAMES       LGT RAIN  45  45 100 NW18G26   29.49S
FAIRMONT       LGT RAIN  43  42  97 NW18      29.46F
GLENCOE        RAIN      42  42 100 N14G22    29.48F
FARIBAULT      LGT RAIN  46  46 100 N12G17    29.43F
OWATONNA       LGT RAIN  54  52  94 N7        29.41F
WASECA         RAIN      52  50  93 N16       29.43F
ALBERT LEA     DRIZZLE   50  48  93 W3        29.41S
$$
MNZ078>079-086>088-094>096-261000-
   Southeast Minnesota

CITY           SKY/WX    TMP DP  RH WIND       PRES   REMARKS
ROCHESTER      CLOUDY    52  52 100 NE10      29.39F
RED WING       RAIN      50  46  87 N3        29.43R
STANTON        RAIN      48  46  92 N15       29.42S
DODGE CENTER   LGT RAIN  52  52 100 NE9       29.39F
WINONA         DRIZZLE   55  54  94 CALM      29.40F
AUSTIN         CLOUDY    54  50  87 CALM      29.38F
PRESTON        CLOUDY    52  50  93 NE3       29.39F
$$
ABBREVIATIONS USED IN REMARKS
   TC - TEMPERATURES IN CELSIUS
  WCI - WIND CHILL INDEX
   HX - HEAT INDEX
  VSB - VISIBILITY
$$




USA.gov is the U.S. government's official web portal to all federal, state and local government web resources and services.